Погода в Южном

Россия / Республика Калмыкия     45°31′31″N   44°41′39″E
темп.,
°C
ветер,
м/с
пор.,
м/с
влажн.,
%
обл.,
%
осадки,
мм/ч
давл.,
гПа
погр.,
м
15 апреля, чт
чт1500:00+11сз61183100 0.0 1016371
03:00+10зсз61086100 0.0 1016302
06:00+10зсз71185100 0.0 1016245
09:00+14зсз8106897 0.0 1017565
12:00+18зсз910421 0.0 10151183
15:00+19сз89340 0.0 10151559
18:00+17зсз694738 0.0 1016321
21:00+13зсз486573 0.0 1017139
16 апреля, пт
пт1600:00+12зсз477044 0.0 1017107
03:00+11зсз46745 0.0 101892
06:00+11зсз45775 0.0 101982
09:00+17сз33528 0.0 1019640
12:00+20ссз123998 0.0 10191521
15:00+22св223270 0.0 10172188
18:00+20в354046 0.0 101890
21:00+16вюв2241100 0.0 101913
17 апреля, сб
сб1700:00+14сз4563100 0.0 101989
03:00+12ссв3462100 0.0 101856
06:00+12ссз3565100 0.0 1019108
09:00+13сз8982100 0.1 1021543
12:00+15сз8867100 0.1 1022920
15:00+14сз5768100 0.2 1022667
18:00+13зсз3471100 0.1 1023489
21:00+12з3473100 0.1 1023130
18 апреля, вс
вс1800:00+11зсз348392 0.0 102283
03:00+10ссз338269 0.0 102249
06:00+9всв1175100 0.0 102118
09:00+14вюв2256100 0.0 1020643
12:00+17вюв3447100 0.0 10181139
15:00+17всв2450100 0.1 10161158
18:00+12с81082100 0.2 1017363
21:00+12св478699 0.6 1017278
19 апреля, пн
пн1900:00+12всв368689 0.0 1016297
03:00+12св238798 0.0 1016132
06:00+12всв358881 0.0 1016152
09:00+16юв2267100 0.0 1016649
12:00+19з1256100 0.1 10141103
15:00+19ссз126272 0.2 1014766
18:00+16ссв2381100 1.3 1014235
21:00+13в4691100 5.4 1014211